Back to catalog

ICEYE-X49

AliveScienceVLEO
NORAD 62384·PAYLOAD·🇫🇮 Finland

Launched Dec 21, 2024 from Vandenberg Space Force Base

Loading…

Next Passes (next 24 hours)

TLE

FreshSource: Space-Track

Epoch: Sep 14, 2026, 09:48 UTC

1 62384U 24247H   26257.40840077  .00003947  00000-0  23113-3 0  9990
2 62384  44.9944 240.7627 0000820 307.2276  52.8526 15.13456007 95693

Track ICEYE-X49 in real time with AllMySat

Download on the App Store